Saint Bonnet de Bellac- Haute Vienne - France
Donnes mto: mardi, 25/09/2012
Date Horaire Temp. E. Hum. E. P.atmo. Pluie Vent Direction Direction Ensoleilleme Solaire P. de rose Temp au vent Rafales
25/09/2012 00:00 14,7 C 85 % 1004,1 hPa 0,0 mm 13,3 km/h (3 Bft) S 180 0 min 0 W/m 12,2 C 14,7 C 16,6 km/h (3 Bft)
25/09/2012 00:10 14,8 C 85 % 1003,9 hPa 0,0 mm 16,2 km/h (3 Bft) O-SO 247 0 min 0 W/m 12,3 C 14,8 C 22,7 km/h (4 Bft)
25/09/2012 00:20 14,8 C 85 % 1003,8 hPa 0,0 mm 15,1 km/h (3 Bft) SO 225 0 min 0 W/m 12,3 C 14,8 C 20,9 km/h (4 Bft)
25/09/2012 00:30 14,8 C 85 % 1003,8 hPa 0,0 mm 9,7 km/h (2 Bft) SO 225 0 min 0 W/m 12,3 C 14,8 C 20,5 km/h (4 Bft)
25/09/2012 00:40 14,8 C 86 % 1003,8 hPa 0,1 mm 13,3 km/h (3 Bft) S-SO 202 0 min 0 W/m 12,5 C 14,8 C 17,3 km/h (3 Bft)
25/09/2012 00:50 14,4 C 87 % 1003,4 hPa 0,1 mm 16,9 km/h (3 Bft) S 180 0 min 0 W/m 12,3 C 14,4 C 22,0 km/h (4 Bft)
25/09/2012 01:00 14,3 C 88 % 1003,5 hPa 0,0 mm 14,4 km/h (3 Bft) SO 225 0 min 0 W/m 12,3 C 14,3 C 21,6 km/h (4 Bft)
25/09/2012 01:10 14,2 C 88 % 1003,3 hPa 0,0 mm 14,0 km/h (3 Bft) S-SO 202 0 min 0 W/m 12,2 C 14,2 C 19,4 km/h (3 Bft)
25/09/2012 01:20 14,2 C 88 % 1003,1 hPa 0,1 mm 14,8 km/h (3 Bft) SO 225 0 min 0 W/m 12,2 C 14,2 C 22,7 km/h (4 Bft)
25/09/2012 01:30 14,3 C 88 % 1003,1 hPa 0,0 mm 10,4 km/h (2 Bft) SO 225 0 min 0 W/m 12,3 C 14,3 C 13,7 km/h (3 Bft)
25/09/2012 01:40 14,4 C 88 % 1003,0 hPa 0,0 mm 11,2 km/h (2 Bft) SO 225 0 min 0 W/m 12,4 C 14,4 C 18,7 km/h (3 Bft)
25/09/2012 01:50 14,4 C 88 % 1002,8 hPa 0,0 mm 10,4 km/h (2 Bft) O-SO 247 0 min 0 W/m 12,4 C 14,4 C 13,7 km/h (3 Bft)
25/09/2012 02:00 14,3 C 88 % 1002,7 hPa 0,0 mm 12,6 km/h (3 Bft) S-SO 202 0 min 0 W/m 12,3 C 14,3 C 16,2 km/h (3 Bft)
25/09/2012 02:10 14,2 C 89 % 1002,6 hPa 0,1 mm 10,4 km/h (2 Bft) SO 225 0 min 0 W/m 12,4 C 14,2 C 14,0 km/h (3 Bft)
25/09/2012 02:20 14,1 C 90 % 1002,5 hPa 0,0 mm 11,5 km/h (2 Bft) SO 225 0 min 0 W/m 12,5 C 14,1 C 15,1 km/h (3 Bft)
25/09/2012 02:30 14,2 C 90 % 1002,3 hPa 0,0 mm 15,1 km/h (3 Bft) SO 225 0 min 0 W/m 12,6 C 14,2 C 15,8 km/h (3 Bft)
25/09/2012 02:40 14,3 C 89 % 1002,3 hPa 0,0 mm 9,7 km/h (2 Bft) SO 225 0 min 0 W/m 12,5 C 14,3 C 18,0 km/h (3 Bft)
25/09/2012 02:50 14,3 C 89 % 1002,1 hPa 0,0 mm 8,3 km/h (2 Bft) O-SO 247 0 min 0 W/m 12,5 C 14,3 C 11,2 km/h (2 Bft)
25/09/2012 03:02 14,3 C 89 % 1001,9 hPa 0,0 mm 7,2 km/h (2 Bft) S-SO 202 0 min 0 W/m 12,5 C 14,3 C 8,3 km/h (2 Bft)
25/09/2012 03:10 14,4 C 88 % 1001,8 hPa 0,0 mm 12,6 km/h (3 Bft) S-SE 157 0 min 0 W/m 12,4 C 14,4 C 24,8 km/h (4 Bft)
25/09/2012 03:20 14,5 C 88 % 1001,5 hPa 0,0 mm 10,1 km/h (2 Bft) SO 225 0 min 0 W/m 12,5 C 14,5 C 10,1 km/h (2 Bft)
25/09/2012 03:30 14,6 C 88 % 1001,2 hPa 0,0 mm 14,4 km/h (3 Bft) SO 225 0 min 0 W/m 12,6 C 14,6 C 26,3 km/h (4 Bft)
25/09/2012 03:40 14,8 C 88 % 1001,1 hPa 0,0 mm 8,3 km/h (2 Bft) S-SO 202 0 min 0 W/m 12,8 C 14,8 C 14,8 km/h (3 Bft)
25/09/2012 03:50 14,8 C 87 % 1001,1 hPa 0,0 mm 13,3 km/h (3 Bft) SO 225 0 min 0 W/m 12,7 C 14,8 C 13,3 km/h (3 Bft)
25/09/2012 04:00 14,8 C 87 % 1000,9 hPa 0,0 mm 11,2 km/h (2 Bft) O-SO 247 0 min 0 W/m 12,7 C 14,8 C 18,4 km/h (3 Bft)
25/09/2012 04:10 14,9 C 87 % 1001,0 hPa 0,0 mm 13,0 km/h (3 Bft) SO 225 0 min 0 W/m 12,8 C 14,9 C 16,9 km/h (3 Bft)
25/09/2012 04:20 14,9 C 87 % 1000,8 hPa 0,0 mm 16,6 km/h (3 Bft) SO 225 0 min 0 W/m 12,8 C 14,9 C 16,6 km/h (3 Bft)
25/09/2012 04:30 14,9 C 87 % 1000,6 hPa 0,0 mm 14,4 km/h (3 Bft) S-SO 202 0 min 0 W/m 12,8 C 14,9 C 18,7 km/h (3 Bft)
25/09/2012 04:40 14,8 C 87 % 1000,5 hPa 0,0 mm 17,6 km/h (3 Bft) S-SO 202 0 min 0 W/m 12,7 C 14,8 C 26,6 km/h (4 Bft)
25/09/2012 04:50 14,7 C 88 % 1000,5 hPa 0,2 mm 7,6 km/h (2 Bft) SO 225 0 min 0 W/m 12,7 C 14,7 C 8,3 km/h (2 Bft)
25/09/2012 05:00 14,5 C 88 % 1000,7 hPa 0,0 mm 5,4 km/h (2 Bft) O-SO 247 0 min 0 W/m 12,5 C 14,5 C 7,9 km/h (2 Bft)
25/09/2012 05:10 14,2 C 88 % 1001,1 hPa 0,1 mm 4,3 km/h (1 Bft) S 180 0 min 0 W/m 12,2 C 14,2 C 6,1 km/h (2 Bft)
25/09/2012 05:20 13,3 C 87 % 1001,5 hPa 1,7 mm 1,4 km/h (1 Bft) SO 225 0 min 0 W/m 11,2 C 13,3 C 2,9 km/h (1 Bft)
25/09/2012 05:30 12,4 C 87 % 1001,4 hPa 1,0 mm 4,7 km/h (1 Bft) O 270 0 min 0 W/m 10,3 C 12,4 C 9,0 km/h (2 Bft)
25/09/2012 05:40 11,8 C 89 % 1001,3 hPa 0,2 mm 0,0 km/h (0 Bft) O-SO 247 0 min 0 W/m 10,0 C 11,8 C 0,0 km/h (0 Bft)
25/09/2012 05:50 11,6 C 90 % 1001,5 hPa 0,2 mm 1,1 km/h (1 Bft) SO 225 0 min 0 W/m 10,0 C 11,6 C 3,6 km/h (1 Bft)
25/09/2012 06:00 11,4 C 90 % 1001,3 hPa 0,4 mm 0,0 km/h (0 Bft) O 270 0 min 0 W/m 9,8 C 11,4 C 0,0 km/h (0 Bft)
25/09/2012 06:10 11,3 C 90 % 1001,2 hPa 0,3 mm 0,0 km/h (0 Bft) O-SO 247 0 min 0 W/m 9,7 C 11,3 C 0,0 km/h (0 Bft)
25/09/2012 06:20 11,2 C 90 % 1001,1 hPa 0,1 mm 1,1 km/h (1 Bft) S-SO 202 0 min 0 W/m 9,6 C 11,2 C 4,0 km/h (1 Bft)
25/09/2012 06:30 11,1 C 91 % 1001,2 hPa 0,1 mm 1,8 km/h (1 Bft) SO 225 0 min 0 W/m 9,7 C 11,1 C 3,6 km/h (1 Bft)
25/09/2012 06:40 10,9 C 91 % 1001,4 hPa 0,3 mm 1,8 km/h (1 Bft) SO 225 0 min 0 W/m 9,5 C 10,9 C 3,2 km/h (1 Bft)
25/09/2012 06:50 10,9 C 91 % 1001,4 hPa 0,4 mm 1,4 km/h (1 Bft) SO 225 0 min 0 W/m 9,5 C 10,9 C 4,3 km/h (1 Bft)
25/09/2012 07:00 10,8 C 92 % 1001,3 hPa 0,5 mm 1,8 km/h (1 Bft) SO 225 0 min 0 W/m 9,6 C 10,8 C 1,8 km/h (1 Bft)
25/09/2012 07:10 10,6 C 92 % 1001,2 hPa 0,5 mm 2,5 km/h (1 Bft) S-SE 157 0 min 0 W/m 9,4 C 10,6 C 2,9 km/h (1 Bft)
25/09/2012 07:20 10,5 C 92 % 1000,9 hPa 0,4 mm 3,6 km/h (1 Bft) S-SE 157 0 min 0 W/m 9,3 C 10,5 C 7,6 km/h (2 Bft)
25/09/2012 07:30 10,5 C 92 % 1001,1 hPa 0,3 mm 5,8 km/h (2 Bft) S-SE 157 0 min 0 W/m 9,3 C 10,5 C 5,8 km/h (2 Bft)
25/09/2012 07:40 10,5 C 92 % 1000,7 hPa 0,3 mm 3,6 km/h (1 Bft) S-SO 202 0 min 0 W/m 9,3 C 10,5 C 9,0 km/h (2 Bft)
25/09/2012 07:50 10,6 C 93 % 1001,0 hPa 0,2 mm 2,9 km/h (1 Bft) S-SO 202 0 min 0 W/m 9,5 C 10,6 C 4,0 km/h (1 Bft)
25/09/2012 08:00 10,8 C 93 % 1000,6 hPa 0,3 mm 9,0 km/h (2 Bft) S-SO 202 0 min 0 W/m 9,7 C 10,8 C 10,4 km/h (2 Bft)
25/09/2012 08:10 11,1 C 93 % 1000,5 hPa 0,1 mm 7,2 km/h (2 Bft) SO 225 0 min 0 W/m 10,0 C 11,1 C 11,2 km/h (2 Bft)
25/09/2012 08:20 11,4 C 93 % 1000,7 hPa 0,0 mm 7,9 km/h (2 Bft) O-SO 247 0 min 0 W/m 10,3 C 11,4 C 10,8 km/h (2 Bft)
25/09/2012 08:30 11,5 C 93 % 1001,0 hPa 0,0 mm 9,4 km/h (2 Bft) S 180 0 min 0 W/m 10,4 C 11,5 C 10,4 km/h (2 Bft)
25/09/2012 08:40 11,6 C 93 % 1001,1 hPa 0,0 mm 5,4 km/h (2 Bft) S-SO 202 0 min 0 W/m 10,5 C 11,6 C 10,1 km/h (2 Bft)
25/09/2012 08:50 11,6 C 93 % 1001,1 hPa 0,0 mm 4,3 km/h (1 Bft) SO 225 0 min 0 W/m 10,5 C 11,6 C 7,2 km/h (2 Bft)
25/09/2012 09:00 11,6 C 93 % 1000,8 hPa 0,0 mm 6,1 km/h (2 Bft) S-SO 202 0 min 0 W/m 10,5 C 11,6 C 10,1 km/h (2 Bft)
25/09/2012 09:10 11,7 C 93 % 1000,9 hPa 0,0 mm 4,0 km/h (1 Bft) SO 225 0 min 0 W/m 10,6 C 11,7 C 6,1 km/h (2 Bft)
25/09/2012 09:20 11,8 C 93 % 1000,7 hPa 0,0 mm 7,2 km/h (2 Bft) SO 225 0 min 0 W/m 10,7 C 11,8 C 7,2 km/h (2 Bft)
25/09/2012 09:30 11,8 C 93 % 1000,7 hPa 0,0 mm 7,6 km/h (2 Bft) S-SO 202 0 min 0 W/m 10,7 C 11,8 C 9,4 km/h (2 Bft)
25/09/2012 09:40 11,9 C 94 % 1000,7 hPa 0,0 mm 7,6 km/h (2 Bft) S 180 0 min 0 W/m 11,0 C 11,9 C 7,6 km/h (2 Bft)
25/09/2012 09:50 12,0 C 94 % 1001,2 hPa 0,0 mm 5,8 km/h (2 Bft) SO 225 0 min 0 W/m 11,1 C 12,0 C 10,4 km/h (2 Bft)
25/09/2012 10:00 12,2 C 93 % 1001,4 hPa 0,0 mm 3,2 km/h (1 Bft) S-SO 202 0 min 0 W/m 11,1 C 12,2 C 6,5 km/h (2 Bft)
25/09/2012 10:10 12,4 C 93 % 1001,4 hPa 0,0 mm 6,8 km/h (2 Bft) S-SO 202 0 min 0 W/m 11,3 C 12,4 C 6,8 km/h (2 Bft)
25/09/2012 10:20 12,6 C 93 % 1001,4 hPa 0,0 mm 10,1 km/h (2 Bft) SO 225 0 min 0 W/m 11,5 C 12,6 C 13,7 km/h (3 Bft)
25/09/2012 10:30 13,2 C 93 % 1001,5 hPa 0,0 mm 8,6 km/h (2 Bft) S-SO 202 0 min 0 W/m 12,1 C 13,2 C 13,3 km/h (3 Bft)
25/09/2012 10:40 13,4 C 92 % 1001,5 hPa 0,0 mm 7,2 km/h (2 Bft) S-SO 202 0 min 0 W/m 12,1 C 13,4 C 11,5 km/h (2 Bft)
25/09/2012 10:50 13,5 C 91 % 1001,5 hPa 0,0 mm 7,9 km/h (2 Bft) SO 225 0 min 0 W/m 12,1 C 13,5 C 7,9 km/h (2 Bft)
25/09/2012 11:00 13,8 C 90 % 1001,6 hPa 0,0 mm 6,1 km/h (2 Bft) S-SO 202 0 min 0 W/m 12,2 C 13,8 C 7,9 km/h (2 Bft)
25/09/2012 11:10 14,1 C 89 % 1001,6 hPa 0,0 mm 7,2 km/h (2 Bft) SO 225 0 min 0 W/m 12,3 C 14,1 C 7,2 km/h (2 Bft)
25/09/2012 11:20 14,1 C 88 % 1001,5 hPa 0,0 mm 6,5 km/h (2 Bft) SO 225 0 min 0 W/m 12,1 C 14,1 C 7,9 km/h (2 Bft)
25/09/2012 11:30 14,1 C 88 % 1001,5 hPa 0,0 mm 10,4 km/h (2 Bft) O-SO 247 0 min 0 W/m 12,1 C 14,1 C 11,9 km/h (2 Bft)
25/09/2012 11:40 14,1 C 87 % 1001,6 hPa 0,0 mm 7,9 km/h (2 Bft) SO 225 0 min 0 W/m 12,0 C 14,1 C 7,9 km/h (2 Bft)
25/09/2012 11:50 14,2 C 87 % 1001,9 hPa 0,0 mm 5,0 km/h (1 Bft) S 180 0 min 0 W/m 12,1 C 14,2 C 8,3 km/h (2 Bft)
25/09/2012 12:00 14,3 C 87 % 1001,8 hPa 0,0 mm 7,2 km/h (2 Bft) O-SO 247 0 min 0 W/m 12,2 C 14,3 C 9,7 km/h (2 Bft)
25/09/2012 12:10 14,3 C 87 % 1001,7 hPa 0,1 mm 7,9 km/h (2 Bft) SO 225 0 min 0 W/m 12,2 C 14,3 C 11,2 km/h (2 Bft)
25/09/2012 12:20 14,3 C 87 % 1001,4 hPa 0,0 mm 10,1 km/h (2 Bft) SO 225 0 min 0 W/m 12,2 C 14,3 C 10,1 km/h (2 Bft)
25/09/2012 12:30 14,3 C 87 % 1000,6 hPa 0,0 mm 6,1 km/h (2 Bft) SO 225 0 min 0 W/m 12,2 C 14,3 C 7,9 km/h (2 Bft)
25/09/2012 12:40 14,2 C 87 % 1000,8 hPa 0,0 mm 9,4 km/h (2 Bft) S 180 0 min 0 W/m 12,1 C 14,2 C 16,6 km/h (3 Bft)
25/09/2012 12:50 14,3 C 86 % 1000,9 hPa 0,0 mm 13,3 km/h (3 Bft) O-SO 247 0 min 0 W/m 12,0 C 14,3 C 30,6 km/h (5 Bft)
25/09/2012 13:00 14,3 C 85 % 1001,0 hPa 0,0 mm 11,9 km/h (2 Bft) S-SO 202 0 min 0 W/m 11,8 C 14,3 C 19,1 km/h (3 Bft)
25/09/2012 13:10 14,2 C 86 % 1000,7 hPa 0,0 mm 11,9 km/h (2 Bft) S 180 0 min 0 W/m 11,9 C 14,2 C 18,0 km/h (3 Bft)
25/09/2012 13:20 14,1 C 86 % 1000,7 hPa 0,0 mm 11,2 km/h (2 Bft) SE 135 0 min 0 W/m 11,8 C 14,1 C 13,3 km/h (3 Bft)
25/09/2012 13:30 14,1 C 86 % 1000,5 hPa 0,1 mm 11,2 km/h (2 Bft) S 180 0 min 0 W/m 11,8 C 14,1 C 18,7 km/h (3 Bft)
25/09/2012 13:40 14,2 C 86 % 1000,6 hPa 0,0 mm 6,5 km/h (2 Bft) S-SO 202 0 min 0 W/m 11,9 C 14,2 C 14,4 km/h (3 Bft)
25/09/2012 13:50 14,5 C 86 % 1000,7 hPa 0,0 mm 8,6 km/h (2 Bft) SO 225 0 min 0 W/m 12,2 C 14,5 C 20,2 km/h (4 Bft)
25/09/2012 14:00 14,8 C 86 % 1000,7 hPa 0,0 mm 6,1 km/h (2 Bft) S 180 0 min 0 W/m 12,5 C 14,8 C 10,4 km/h (2 Bft)
25/09/2012 14:10 14,9 C 85 % 1000,7 hPa 0,0 mm 12,2 km/h (2 Bft) S-SO 202 0 min 0 W/m 12,4 C 14,9 C 13,7 km/h (3 Bft)
25/09/2012 14:20 15,0 C 84 % 1000,7 hPa 0,0 mm 9,0 km/h (2 Bft) SO 225 0 min 0 W/m 12,3 C 15,0 C 15,1 km/h (3 Bft)
25/09/2012 14:30 15,1 C 83 % 1000,6 hPa 0,0 mm 13,7 km/h (3 Bft) S 180 0 min 0 W/m 12,2 C 15,1 C 22,0 km/h (4 Bft)
25/09/2012 14:40 15,4 C 82 % 1000,5 hPa 0,0 mm 11,9 km/h (2 Bft) S-SE 157 0 min 0 W/m 12,3 C 15,4 C 18,4 km/h (3 Bft)
25/09/2012 14:50 15,5 C 81 % 1000,2 hPa 0,0 mm 9,4 km/h (2 Bft) SO 225 0 min 0 W/m 12,3 C 15,5 C 17,3 km/h (3 Bft)
25/09/2012 15:00 15,4 C 81 % 1000,3 hPa 0,0 mm 9,7 km/h (2 Bft) SO 225 0 min 0 W/m 12,2 C 15,4 C 15,5 km/h (3 Bft)
25/09/2012 15:10 15,3 C 82 % 1000,4 hPa 0,0 mm 13,3 km/h (3 Bft) S-SO 202 0 min 0 W/m 12,2 C 15,3 C 21,2 km/h (4 Bft)
25/09/2012 15:20 14,9 C 84 % 1000,2 hPa 0,0 mm 6,1 km/h (2 Bft) S-SO 202 0 min 0 W/m 12,2 C 14,9 C 14,0 km/h (3 Bft)
25/09/2012 15:30 15,0 C 84 % 1000,2 hPa 0,0 mm 6,8 km/h (2 Bft) S-SO 202 0 min 0 W/m 12,3 C 15,0 C 6,8 km/h (2 Bft)
25/09/2012 15:40 15,2 C 84 % 1000,1 hPa 0,0 mm 12,2 km/h (2 Bft) S-SO 202 0 min 0 W/m 12,5 C 15,2 C 20,9 km/h (4 Bft)
25/09/2012 15:50 15,2 C 84 % 1000,0 hPa 0,0 mm 11,5 km/h (2 Bft) SO 225 0 min 0 W/m 12,5 C 15,2 C 18,0 km/h (3 Bft)
25/09/2012 16:00 15,0 C 85 % 1000,2 hPa 0,0 mm 10,1 km/h (2 Bft) S-SO 202 0 min 0 W/m 12,5 C 15,0 C 15,1 km/h (3 Bft)
25/09/2012 16:10 14,7 C 86 % 999,9 hPa 0,0 mm 8,3 km/h (2 Bft) SO 225 0 min 0 W/m 12,4 C 14,7 C 11,5 km/h (2 Bft)
25/09/2012 16:20 14,5 C 86 % 999,6 hPa 0,0 mm 9,4 km/h (2 Bft) S 180 0 min 0 W/m 12,2 C 14,5 C 9,4 km/h (2 Bft)
25/09/2012 16:30 14,4 C 87 % 999,5 hPa 0,0 mm 8,6 km/h (2 Bft) S-SO 202 0 min 0 W/m 12,3 C 14,4 C 10,1 km/h (2 Bft)
25/09/2012 16:40 14,3 C 87 % 999,5 hPa 0,1 mm 14,4 km/h (3 Bft) S 180 0 min 0 W/m 12,2 C 14,3 C 23,4 km/h (4 Bft)
25/09/2012 16:50 14,1 C 87 % 999,5 hPa 0,0 mm 5,0 km/h (1 Bft) S 180 0 min 0 W/m 12,0 C 14,1 C 8,3 km/h (2 Bft)
25/09/2012 17:00 13,9 C 88 % 999,5 hPa 0,1 mm 7,6 km/h (2 Bft) S-SE 157 0 min 0 W/m 11,9 C 13,9 C 12,6 km/h (3 Bft)
25/09/2012 17:10 13,8 C 88 % 999,6 hPa 0,0 mm 9,4 km/h (2 Bft) S-SO 202 0 min 0 W/m 11,8 C 13,8 C 16,6 km/h (3 Bft)
25/09/2012 17:20 13,8 C 88 % 999,5 hPa 0,0 mm 6,8 km/h (2 Bft) SO 225 0 min 0 W/m 11,8 C 13,8 C 10,1 km/h (2 Bft)
25/09/2012 17:30 13,8 C 88 % 999,1 hPa 0,0 mm 5,0 km/h (1 Bft) S-SO 202 0 min 0 W/m 11,8 C 13,8 C 7,6 km/h (2 Bft)
25/09/2012 17:40 13,8 C 88 % 999,2 hPa 0,0 mm 12,6 km/h (3 Bft) S-SO 202 0 min 0 W/m 11,8 C 13,8 C 17,3 km/h (3 Bft)
25/09/2012 17:50 13,9 C 88 % 999,3 hPa 0,0 mm 10,8 km/h (2 Bft) SO 225 0 min 0 W/m 11,9 C 13,9 C 16,9 km/h (3 Bft)
_ Min-Heure 07:40 15:00 17:30 - 06:10 - - - - 07:40 07:40 06:10
Minimum _ 10,5 C 81 % 999,1 hPa - 0,0 km/h (0 Bft) - - - - 9,3 C 10,5 C 0,0 km/h (0 Bft)
_ Max-Heure 14:50 09:50 00:00 05:20 04:40 - - 17:50 17:50 03:40 14:50 12:50
Maximum _ 15,5 C 94 % 1004,1 hPa 1,7 mm 17,6 km/h
S-SO (3 Bft)
- - 0 min 0 W/m 12,8 C 15,5 C 30,6 km/h
O-SO (5 Bft)
Moyenne _ 13,6 C 88 % 1001,2 hPa #8,6 mm 8,6 km/h (2 Bft) SO - #0 min. 0 W/m 11,7 C 13,6 C 12,6 km/h (2 Bft)
Saint Bonnet de Bellac- Haute Vienne - France